This is the latest recevied weather packets stored in our database for station/object N4HAC. If no packets are shown the sender has not sent any weather packets the latest 10 day(s).
| Time | Temp. | Humidity | Pressure | Rain* | Wind** | Luminosity | Snow |
|---|---|---|---|---|---|---|---|
| 1777651011 | 15.56° C | 50% | 1008.8 hPa | 0 mm | - | 847 W/m² | - |
| 1777650708 | 15° C | 49% | 1009 hPa | 0 mm | - | 841 W/m² | - |
| 1777650406 | 14.44° C | 51% | 1008.9 hPa | 0 mm | - | 840 W/m² | - |
| 1777650103 | 14.44° C | 53% | 1008.8 hPa | 0 mm | - | 831 W/m² | - |
| 1777649800 | 15° C | 50% | 1009.1 hPa | 0 mm | - | 822 W/m² | - |
| 1777649497 | 15° C | 49% | 1009 hPa | 0 mm | - | 807 W/m² | - |
| 1777649193 | 14.44° C | 51% | 1009.2 hPa | 0 mm | - | 782 W/m² | - |
| 1777648890 | 14.44° C | 52% | 1009.4 hPa | 0 mm | - | 694 W/m² | - |
| 1777648284 | 15° C | 50% | 1009.6 hPa | 0 mm | - | 749 W/m² | - |
| 1777647980 | 14.44° C | 48% | 1009.5 hPa | 0 mm | - | 728 W/m² | - |
| 1777647677 | 15° C | 49% | 1009.7 hPa | 0 mm | - | 717 W/m² | - |
| 1777647372 | 14.44° C | 46% | 1009.4 hPa | 0 mm | - | 715 W/m² | - |
| 1777647071 | 13.33° C | 53% | 1009.6 hPa | 0 mm | - | 697 W/m² | - |
| 1777646767 | 13.89° C | 50% | 1009.7 hPa | 0 mm | - | 682 W/m² | - |
| 1777646467 | 13.33° C | 50% | 1009.6 hPa | 0 mm | - | 621 W/m² | - |
| 1777646163 | 13.89° C | 53% | 1009.6 hPa | 0 mm | - | 532 W/m² | - |
| 1777645861 | 13.33° C | 50% | 1009.7 hPa | 0 mm | - | 642 W/m² | - |
| 1777645558 | 13.89° C | 49% | 1010 hPa | 0 mm | - | 642 W/m² | - |
| 1777645254 | 13.33° C | 49% | 1009.7 hPa | 0 mm | - | 376 W/m² | - |
| 1777644950 | 13.33° C | 49% | 1009.9 hPa | 0 mm | - | 576 W/m² | - |
| 1777644648 | 13.89° C | 47% | 1009.9 hPa | 0 mm | - | 630 W/m² | - |
| 1777644343 | 13.33° C | 51% | 1009.7 hPa | 0 mm | - | 497 W/m² | - |
| 1777644039 | 13.89° C | 48% | 1009.9 hPa | 0 mm | - | 606 W/m² | - |
| 1777643736 | 13.33° C | 49% | 1009.9 hPa | 0 mm | - | 594 W/m² | - |
| 1777643434 | 13.33° C | 51% | 1009.7 hPa | 0 mm | - | 581 W/m² | - |
* Rain latest hour (hover to see other rain measurements)
** Current wind speed in m/s (hover to see current wind gust speed)